Flag for Paraguay Weather past 2 weeks in Ciudad del Este, Paraguay

63 °F

Partly cloudy.

Feels Like: 63 °F
Forecast: 62 / 82 °F
Wind: 2 mph from Southwest

Location: Foz Do Iguacu Aeroporto

Current Time: Oct 4, 2015 at 2:04:37 AM

Latest Report: Oct 4, 2015 at 1:00 AM

Visibility: N/A

Pressure: 30.04 "Hg

Humidity: 94%

Dew point: 61 °F

Location of Ciudad del EsteLocation

Historic Weather in Ciudad del Este — Graph


Ciudad del Este temperature yesterday

Maximum temperature yesterday: 70 °F (at 2:00 PM)
Minimum temperature yesterday: 63 °F (at 11:00 PM)
Average temperature yesterday: 66 °F

Past Weeks' High & Low Weather Summary

High100 °F (Sep 22, 2:00 PM)100% (Sep 27, 4:00 AM)30.07 "Hg (Sep 27, 4:00 AM)
Low39 °F (Sep 29, 1:00 AM)19% (Sep 22, 3:00 PM)29.62 "Hg (Sep 24, 4:00 PM)
Average75 °F72%29.85 "Hg
* Reported Sep 18 11:00 PM — Oct 3 11:00 PM, Ciudad del Este, Weather by CustomWeather, © 2015

Note: Actual official high and low records may vary slightly from our data, if they occured in-between our weather recording intervals... More about our weather records


Ciudad del Este weather history for previous 24 hours

Time TempWeatherWind HumidityBarometerVisibility
11:00 PM
Sat, Oct 3
63 °FPassing clouds.3 mph94%30.07 "HgN/A
10:00 PM64 °FPassing clouds.5 mph94%30.04 "HgN/A
9:00 PM64 °FLow clouds.5 mph94%30.04 "HgN/A
8:00 PM64 °FLow clouds.3 mph94%30.04 "HgN/A
7:00 PM64 °FLow clouds.2 mph94%30.01 "HgN/A
6:00 PM64 °FLow clouds.7 mph94%29.98 "HgN/A
5:00 PM66 °FDrizzle. Low clouds.12 mph88%29.98 "Hg3 mi
4:00 PM68 °FPartly sunny.7 mph94%29.95 "HgN/A
3:00 PM70 °FPartly sunny.7 mph88%29.95 "HgN/A
2:00 PM70 °FPartly sunny.8 mph88%29.95 "HgN/A
1:00 PM68 °FPartly sunny.7 mph94%29.98 "Hg5 mi
12:00 PM68 °FLow clouds.5 mph94%30.01 "HgN/A
11:00 AM68 °FLow clouds.5 mph88%30.01 "HgN/A
10:00 AM66 °FDrizzle. Low clouds.3 mph94%30.01 "Hg5 mi
9:00 AM66 °FDrizzle. Low clouds.2 mph88%30.04 "Hg4 mi
8:00 AM66 °FPartly sunny.2 mph94%30.01 "HgN/A
7:00 AM66 °FPartly sunny.5 mph94%29.98 "HgN/A
6:00 AM66 °FPartly sunny.6 mph88%29.92 "HgN/A
5:00 AM64 °FBroken clouds.7 mph94%29.92 "HgN/A
4:00 AM64 °FPartly cloudy.7 mph94%29.89 "HgN/A
3:00 AM64 °FPartly cloudy.6 mph94%29.92 "Hg5 mi
2:00 AM66 °FFog.3 mph94%N/A3 mi
Weather by CustomWeather, © 2015

See weather overviewHow to use our weather pages